Regional Weather Roundup
Issued by NWS

Home | Current Version | Previous Version | Text Only | Print | Product List | Glossary On
Versions: 1 2 3 4 5 6 7 8 9 10 11 12 13 14 15 16 17 18 19 20 21 22 23 24 25 26 27 28 29 30 31 32 33 34 35 36 37 38 39 40 41 42 43 44 45 46 47 48 49 50
000
ASUS43 KLSX 031259
RWRMO

WEATHER SUMMARY FOR MISSOURI
NATIONAL WEATHER SERVICE SPRINGFIELD MO
800 AM CDT SUN MAY 03 2015

NOTE: "FAIR" INDICATES FEW OR NO CLOUDS BELOW 12,000 FEET WITH NO
       SIGNIFICANT WEATHER AND/OR OBSTRUCTIONS TO VISIBILITY.
       CURRENT SKY AND/OR WEATHER CONDITIONS ARE NOT AVAILABLE FOR
       CHILLICOTHE AND FARMINGTON.

MOZ001>031-035>038-043-044-053-054-031400-
...NORTHERN AND WESTERN MISSOURI...

CITY           SKY/WX    TMP DP  RH WIND       PRES   REMARKS
KANSAS CTY INT CLOUDY    64  55  72 S14       29.86R
KANSAS C DTWN  CLOUDY    65  53  65 S15       29.86S
LEE`S SUMMIT   PTSUNNY   63  52  67 S13G23    29.90R
ST JOSEPH      PTSUNNY   63  56  78 S5        29.84S
CHILLICOTHE      N/A     65  54  67 S7        29.88F
KIRKSVILLE     PTSUNNY   62  53  72 S13       29.93R

$$
MOZ066>068-077>081-088>096-101>105-031400-
...SOUTHWEST MISSOURI...

CITY           SKY/WX    TMP DP  RH WIND       PRES   REMARKS
SPRINGFIELD    PTSUNNY   60  50  69 S12       30.01R
JOPLIN         CLOUDY    63  52  67 S10       29.97R

$$
MOZ032>034-039>042-045>050-055>058-069>072-031400-
...CENTRAL MISSOURI...

CITY           SKY/WX    TMP DP  RH WIND       PRES   REMARKS
COLUMBIA       PTSUNNY   61  50  67 S9        29.98R
JEFFERSON CITY CLOUDY    62  48  60 SE5       30.00R
ROLLA          PTSUNNY   62  48  60 S12       30.01R
SEDALIA        PTSUNNY   65  51  60 S14       29.96S
OSAGE BEACH    CLOUDY    61  46  59 S5        30.01R

$$
MOZ051-052-059>065-031400-
...EAST CENTRAL MISSOURI...

CITY           SKY/WX    TMP DP  RH WIND       PRES   REMARKS
ST LOUIS INTL  PTSUNNY   67  45  45 S9        30.02R
SPIRIT OF STL  PTSUNNY   67  46  47 VRB6      30.01R
ST CHARLES     MOSUNNY   65  48  54 S6        30.01R

$$
MOZ072>076-082>087-097>100-106>115-031400-
...SOUTH CENTRAL AND SOUTHEAST MISSOURI...

CITY           SKY/WX    TMP DP  RH WIND       PRES   REMARKS
CAPE GIRARDEAU MOSUNNY   63  51  65 CALM      30.07R
FARMINGTON     PTSUNNY   63  46  55 S6        30.09R
POPLAR BLUFF   CLOUDY    61  52  72 CALM      30.06R
WEST PLAINS    PTSUNNY   61  42  49 S3        30.06R

$$


USA.gov is the U.S. government's official web portal to all federal, state and local government web resources and services.